GW5292 Weather Reports


time (UTC)temp
F
wind
direction
speed
knots
gust
knots
rain 1hr
in
rain 24hr
in
rain mn
in
humidity
%
barometer
mb
20260903090003 68 33 0.9 2.6 0.11 1.03 0.96 97 1015.8
20260903084507 68 348 0.9 1.7 0.14 1.02 0.95 97 1016.5
20260903083011 68 236 0.0 1.7 0.13 0.98 0.91 97 1016.4
20260903081515 67 352 0.0 0.9 0.16 0.95 0.88 97 1016.6
20260903080025 68 352 0.0 1.7 0.16 0.92 0.85 97 1017.2
20260903074505 67 179 0.0 1.7 0.12 0.88 0.81 97 1017.3
20260903073008 67 179 0.0 2.6 0.09 0.85 0.78 96 1017.6
20260903071514 67 167 0.0 1.7 0.03 0.79 0.72 96 1018.7
20260903070022 68 165 0.9 1.7 0.00 0.76 0.69 96 1017.9
20260903064527 68 165 0.9 1.7 0.00 0.76 0.69 96 1017.1
20260903063010 68 165 0.0 1.7 0.01 0.76 0.69 96 1017.2
20260903061509 68 53 0.0 3.5 0.07 0.76 0.69 96 1017.6
20260903060019 68 9 0.9 2.6 0.32 0.76 0.69 96 1017.6
20260903054523 68 352 1.7 3.5 0.57 0.76 0.69 96 1017.4
20260903053028 68 306 0.0 1.7 0.68 0.75 0.68 96 1016.8
20260903051507 68 299 0.9 3.5 0.62 0.69 0.62 96 1017.0
20260903050014 69 27 0.9 4.3 0.37 0.44 0.37 96 1018.7
20260903044521 69 42 0.9 5.2 0.12 0.19 0.12 95 1019.7
20260903043107 70 331 2.6 5.2 0.00 0.07 0.00 95 1019.3
20260903041530 70 17 2.6 7.0 0.00 0.07 0.00 95 1018.2
20260903040017 70 43 0.9 3.5 0.00 0.07 0.00 95 1018.1
20260903034533 71 67 0.0 3.5 0.00 0.07 0.07 95 1018.2
20260903033024 71 330 0.0 1.7 0.00 0.07 0.07 95 1018.2
20260903031531 71 11 0.9 1.7 0.00 0.07 0.07 95 1018.4
20260903030034 71 351 0.9 2.6 0.00 0.07 0.07 95 1018.2
20260903024523 71 26 0.9 1.7 0.00 0.07 0.07 95 1017.9
20260903023022 71 352 0.9 1.7 0.00 0.07 0.07 95 1018.1
20260903021532 71 40 0.9 2.6 0.00 0.07 0.07 95 1018.2
20260903020011 71 40 0.9 1.7 0.00 0.07 0.07 95 1018.3
20260903014503 71 317 0.0 2.6 0.00 0.07 0.07 95 1017.8
20260903013007 71 345 0.9 1.7 0.00 0.07 0.07 95 1017.7
20260903011510 71 40 0.0 2.6 0.00 0.07 0.07 95 1017.6
20260903010004 71 19 0.0 1.7 0.00 0.07 0.07 95 1017.8
20260903004506 71 352 0.0 1.7 0.00 0.07 0.07 95 1018.1
20260903003004 71 43 0.9 1.7 0.00 0.07 0.07 95 1018.0
20260903001504 71 29 0.9 1.7 0.00 0.07 0.07 95 1018.0
20260903000004 71 9 0.0 3.5 0.00 0.07 0.07 94 1017.7
20260902234510 71 38 0.9 4.3 0.00 0.07 0.07 93 1017.5
20260902233004 71 240 0.9 5.2 0.00 0.08 0.07 93 1017.5
20260902231506 72 44 0.0 3.5 0.00 0.18 0.07 92 1017.5
20260902230003 72 29 0.0 3.5 0.00 0.25 0.07 92 1017.6
20260902224505 72 352 0.0 1.7 0.00 0.26 0.07 93 1017.6
20260902223020 73 38 0.0 2.6 0.00 0.36 0.07 92 1017.9
20260902221503 73 59 0.9 1.7 0.00 0.37 0.07 91 1018.1
20260902220006 73 28 0.0 1.7 0.00 0.37 0.07 91 1018.3
20260902214507 73 241 0.9 1.7 0.00 0.37 0.07 91 1018.2
20260902213008 73 33 0.9 1.7 0.01 0.37 0.07 91 1018.4
20260902211508 73 219 0.9 1.7 0.01 0.37 0.07 90 1018.2
20260902210010 73 352 0.0 1.7 0.01 0.37 0.07 1018.1
20260902204513 73 308 0.0 3.5 0.01 0.37 0.07 1017.9
20260902203010 74 9 0.9 1.7 0.00 0.36 0.06 91 1017.6
20260902201508 73 205 0.0 2.6 0.00 0.36 0.06 91 1017.6
20260902200011 73 297 0.0 0.0 0.00 0.36 0.06 91 1018.1
20260902194518 73 304 0.0 0.9 0.00 0.36 0.06 91 1018.4
20260902193011 73 344 0.0 1.7 0.00 0.36 0.06 91 1018.7
20260902191514 73 344 0.9 3.5 0.00 0.36 0.06 92 1018.3
20260902190019 72 328 0.9 4.3 0.00 0.36 0.06 92 1018.1
20260902184516 72 26 0.0 2.6 0.00 0.36 0.06 94 1018.3
20260902183014 72 46 0.9 3.5 0.00 0.36 0.06 94 1018.4
20260902181516 71 33 0.0 1.7 0.01 0.36 0.06 94 1019.2
20260902180017 71 14 1.7 2.6 0.03 0.36 0.06 94 1019.5
20260902174518 71 25 0.0 0.9 0.05 0.36 0.06 95 1019.6
20260902173015 71 333 0.0 0.0 0.06 0.36 0.06 94 1019.8
20260902171518 71 333 0.0 1.7 0.05 0.35 0.05 94 1020.0
20260902170018 71 244 0.0 0.9 0.03 0.33 0.03 93 1019.9
20260902164516 72 244 0.0 1.7 0.01 0.31 0.01 92 1020.1
20260902163018 72 161 0.0 1.7 0.00 0.30 0.00 90 1020.3
20260902161520 72 213 0.0 1.7 0.00 0.30 0.00 91 1020.3
20260902160012 72 88 0.0 3.5 0.00 0.30 0.00 91 1020.1
20260902154511 72 40 0.0 2.6 0.00 0.30 0.00 91 1020.1
20260902153016 72 315 0.9 1.7 0.00 0.30 0.00 91 1019.9
20260902151520 71 338 0.9 2.6 0.00 0.30 0.00 92 1019.4
20260902150006 71 72 0.9 1.7 0.00 0.30 0.00 92 1019.6
20260902144510 71 340 0.9 3.5 0.00 0.30 0.00 92 1020.0
20260902143015 71 214 0.0 1.7 0.00 0.30 0.00 93 1020.0
20260902141533 71 14 0.9 1.7 0.00 0.30 0.00 93 1019.9
20260902140004 71 30 0.9 2.6 0.00 0.30 0.00 93 1020.0
20260902134510 70 32 0.9 3.5 0.00 0.30 0.00 93 1019.9
20260902133011 70 248 0.0 2.6 0.00 0.30 0.00 93 1019.7
20260902131522 70 36 0.9 3.5 0.00 0.30 0.00 94 1019.6
20260902130026 70 20 0.9 2.6 0.00 0.30 0.00 94 1019.5
20260902124507 70 275 0.0 1.7 0.00 0.30 0.00 94 1019.2
20260902123010 70 142 0.0 1.7 0.00 0.30 0.00 95 1019.2
20260902121519 70 38 0.0 1.7 0.00 0.30 0.00 96 1019.0
20260902120024 70 39 0.9 4.3 0.00 0.30 0.00 96 1018.8
20260902114534 70 280 0.0 1.7 0.00 0.30 0.00 96 1018.8
20260902113009 70 23 0.0 1.7 0.00 0.30 0.00 97 1019.0
20260902111515 70 31 0.0 1.7 0.00 0.30 0.00 97 1018.6
20260902110023 70 35 0.0 0.9 0.00 0.30 0.00 97 1018.5
20260902104537 70 338 0.0 1.7 0.00 0.30 0.00 97 1018.8
20260902103030 70 338 0.0 0.0 0.00 0.30 0.00 97 1018.7
20260902101510 70 338 0.0 0.0 0.00 0.30 0.00 97 1018.5
20260902100029 70 338 0.0 0.9 0.00 0.30 0.00 97 1018.3
20260902094524 70 334 0.0 1.7 0.00 0.30 0.00 97 1018.3
20260902093027 70 338 0.0 0.0 0.00 0.30 0.00 97 1018.2
20260902091541 69 338 0.0 0.0 0.00 0.30 0.00 97 1018.1